Year,Month,Day,Hour,Minute,Value (Times are PST for temperature in C)
2015,06,27,00,00,24.50
2015,06,27,00,01,24.50
2015,06,27,00,02,24.50
2015,06,27,00,03,24.50
2015,06,27,00,04,24.50
2015,06,27,00,05,24.60
2015,06,27,00,06,24.60
2015,06,27,00,07,24.70
2015,06,27,00,08,24.70
2015,06,27,00,09,24.70
2015,06,27,00,10,24.80
2015,06,27,00,11,24.80
2015,06,27,00,12,24.80
2015,06,27,00,13,24.80
2015,06,27,00,14,24.90
2015,06,27,00,15,24.90
2015,06,27,00,16,24.90
2015,06,27,00,17,24.90
2015,06,27,00,18,24.90
2015,06,27,00,19,24.90
2015,06,27,00,20,24.90
2015,06,27,00,21,24.90
2015,06,27,00,22,24.90
2015,06,27,00,23,24.80
2015,06,27,00,24,24.80
2015,06,27,00,25,24.80
2015,06,27,00,26,24.80
2015,06,27,00,27,24.80
2015,06,27,00,28,24.80
2015,06,27,00,29,24.80
2015,06,27,00,30,24.80
2015,06,27,00,31,24.80
2015,06,27,00,32,24.80
2015,06,27,00,33,24.80
2015,06,27,00,34,24.80
2015,06,27,00,35,24.80
2015,06,27,00,36,24.80
2015,06,27,00,37,24.70
2015,06,27,00,38,24.70
2015,06,27,00,39,24.70
2015,06,27,00,40,24.60
2015,06,27,00,41,24.60
2015,06,27,00,42,24.50
2015,06,27,00,43,24.50
2015,06,27,00,44,24.40
2015,06,27,00,45,24.40
2015,06,27,00,46,24.40
2015,06,27,00,47,24.30
2015,06,27,00,48,24.30
2015,06,27,00,49,24.20
2015,06,27,00,50,24.20
2015,06,27,00,51,24.10
2015,06,27,00,52,24.10
2015,06,27,00,53,24.10
2015,06,27,00,54,24.00
2015,06,27,00,55,24.00
2015,06,27,00,56,23.90
2015,06,27,00,57,23.90
2015,06,27,00,58,23.90
2015,06,27,00,59,23.90
2015,06,27,01,00,23.80
2015,06,27,01,01,23.80
2015,06,27,01,02,23.80
2015,06,27,01,03,23.70
2015,06,27,01,04,23.70
2015,06,27,01,05,23.70
2015,06,27,01,06,23.60
2015,06,27,01,07,23.60
2015,06,27,01,08,23.60
2015,06,27,01,09,23.60
2015,06,27,01,10,23.50
2015,06,27,01,11,23.50
2015,06,27,01,12,23.40
2015,06,27,01,13,23.40
2015,06,27,01,14,23.40
2015,06,27,01,15,23.30
2015,06,27,01,16,23.30
2015,06,27,01,17,23.30
2015,06,27,01,18,23.20
2015,06,27,01,19,23.20
2015,06,27,01,20,23.10
2015,06,27,01,21,23.10
2015,06,27,01,22,23.00
2015,06,27,01,23,23.00
2015,06,27,01,24,23.00
2015,06,27,01,25,22.90
2015,06,27,01,26,22.90
2015,06,27,01,27,22.90
2015,06,27,01,28,22.90
2015,06,27,01,29,22.80
2015,06,27,01,30,22.80
2015,06,27,01,31,22.80
2015,06,27,01,32,22.80
2015,06,27,01,33,22.80
2015,06,27,01,34,22.80
2015,06,27,01,35,22.80
2015,06,27,01,36,22.80
2015,06,27,01,37,22.70
2015,06,27,01,38,22.70
2015,06,27,01,39,22.70
2015,06,27,01,40,22.70
2015,06,27,01,41,22.70
2015,06,27,01,42,22.60
2015,06,27,01,43,22.60
2015,06,27,01,44,22.60
2015,06,27,01,45,22.60
2015,06,27,01,46,22.60
2015,06,27,01,47,22.60
2015,06,27,01,48,22.60
2015,06,27,01,49,22.60
2015,06,27,01,50,22.60
2015,06,27,01,51,22.70
2015,06,27,01,52,22.80
2015,06,27,01,53,22.90
2015,06,27,01,54,23.00
2015,06,27,01,55,23.10
2015,06,27,01,56,23.10
2015,06,27,01,57,23.10
2015,06,27,01,58,23.20
2015,06,27,01,59,23.20
2015,06,27,02,00,23.20
2015,06,27,02,01,23.20
2015,06,27,02,02,23.20
2015,06,27,02,03,23.20
2015,06,27,02,04,23.20
2015,06,27,02,05,23.20
2015,06,27,02,06,23.20
2015,06,27,02,07,23.20
2015,06,27,02,08,23.20
2015,06,27,02,09,23.20
2015,06,27,02,10,23.20
2015,06,27,02,11,23.10
2015,06,27,02,12,23.10
2015,06,27,02,13,23.10
2015,06,27,02,14,23.10
2015,06,27,02,15,23.00
2015,06,27,02,16,23.00
2015,06,27,02,17,22.90
2015,06,27,02,18,22.90
2015,06,27,02,19,22.90
2015,06,27,02,20,22.90
2015,06,27,02,21,22.90
2015,06,27,02,22,22.90
2015,06,27,02,23,22.80
2015,06,27,02,24,22.80
2015,06,27,02,25,22.80
2015,06,27,02,26,22.80
2015,06,27,02,27,22.80
2015,06,27,02,28,22.80
2015,06,27,02,29,22.80
2015,06,27,02,30,22.80
2015,06,27,02,31,22.80
2015,06,27,02,32,22.80
2015,06,27,02,33,22.80
2015,06,27,02,34,22.80
2015,06,27,02,35,22.80
2015,06,27,02,36,22.80
2015,06,27,02,37,22.80
2015,06,27,02,38,22.80
2015,06,27,02,39,22.90
2015,06,27,02,40,22.90
2015,06,27,02,41,22.90
2015,06,27,02,42,23.00
2015,06,27,02,43,23.00
2015,06,27,02,44,23.00
2015,06,27,02,45,23.00
2015,06,27,02,46,23.00
2015,06,27,02,47,23.00
2015,06,27,02,48,23.00
2015,06,27,02,49,23.00
2015,06,27,02,50,23.00
2015,06,27,02,51,23.00
2015,06,27,02,52,23.00
2015,06,27,02,53,23.00
2015,06,27,02,54,23.00
2015,06,27,02,55,23.00
2015,06,27,02,56,23.00
2015,06,27,02,57,23.00
2015,06,27,02,58,23.00
2015,06,27,02,59,23.00
2015,06,27,03,00,23.00
2015,06,27,03,01,23.10
2015,06,27,03,02,23.10
2015,06,27,03,03,23.10
2015,06,27,03,04,23.10
2015,06,27,03,05,23.10
2015,06,27,03,06,23.10
2015,06,27,03,07,23.10
2015,06,27,03,08,23.10
2015,06,27,03,09,23.10
2015,06,27,03,10,23.00
2015,06,27,03,11,23.00
2015,06,27,03,12,23.00
2015,06,27,03,13,23.00
2015,06,27,03,14,22.90
2015,06,27,03,15,22.90
2015,06,27,03,16,22.90
2015,06,27,03,17,22.80
2015,06,27,03,18,22.80
2015,06,27,03,19,22.70
2015,06,27,03,20,22.70
2015,06,27,03,21,22.60
2015,06,27,03,22,22.60
2015,06,27,03,23,22.60
2015,06,27,03,24,22.60
2015,06,27,03,25,22.60
2015,06,27,03,26,22.50
2015,06,27,03,27,22.50
2015,06,27,03,28,22.40
2015,06,27,03,29,22.40
2015,06,27,03,30,22.40
2015,06,27,03,31,22.30
2015,06,27,03,32,22.30
2015,06,27,03,33,22.30
2015,06,27,03,34,22.20
2015,06,27,03,35,22.20
2015,06,27,03,36,22.20
2015,06,27,03,37,22.10
2015,06,27,03,38,22.10
2015,06,27,03,39,22.00
2015,06,27,03,40,22.00
2015,06,27,03,41,22.00
2015,06,27,03,42,22.00
2015,06,27,03,43,22.00
2015,06,27,03,44,22.00
2015,06,27,03,45,21.90
2015,06,27,03,46,21.90
2015,06,27,03,47,21.90
2015,06,27,03,48,21.90
2015,06,27,03,49,21.80
2015,06,27,03,50,21.80
2015,06,27,03,51,21.90
2015,06,27,03,52,21.90
2015,06,27,03,53,21.90
2015,06,27,03,54,21.90
2015,06,27,03,55,21.90
2015,06,27,03,56,21.90
2015,06,27,03,57,21.90
2015,06,27,03,58,21.90
2015,06,27,03,59,21.90
2015,06,27,04,00,21.90
2015,06,27,04,01,21.90
2015,06,27,04,02,21.90
2015,06,27,04,03,21.90
2015,06,27,04,04,21.90
2015,06,27,04,05,21.90
2015,06,27,04,06,21.90
2015,06,27,04,07,21.90
2015,06,27,04,08,21.90
2015,06,27,04,09,21.90
2015,06,27,04,10,21.90
2015,06,27,04,11,21.90
2015,06,27,04,12,21.80
2015,06,27,04,13,21.80
2015,06,27,04,14,21.80
2015,06,27,04,15,21.80
2015,06,27,04,16,21.80
2015,06,27,04,17,21.80
2015,06,27,04,18,21.80
2015,06,27,04,19,21.80
2015,06,27,04,20,21.80
2015,06,27,04,21,21.80
2015,06,27,04,22,21.80
2015,06,27,04,23,21.80
2015,06,27,04,24,21.80
2015,06,27,04,25,21.80
2015,06,27,04,26,21.80
2015,06,27,04,27,21.80
2015,06,27,04,28,21.80
2015,06,27,04,29,21.80
2015,06,27,04,30,21.80
2015,06,27,04,31,21.80
2015,06,27,04,32,21.80
2015,06,27,04,33,21.80
2015,06,27,04,34,21.80
2015,06,27,04,35,21.80
2015,06,27,04,36,21.80
2015,06,27,04,37,21.80
2015,06,27,04,38,21.80
2015,06,27,04,39,21.80
2015,06,27,04,40,21.70
2015,06,27,04,41,21.70
2015,06,27,04,42,21.60
2015,06,27,04,43,21.60
2015,06,27,04,44,21.60
2015,06,27,04,45,21.50
2015,06,27,04,46,21.50
2015,06,27,04,47,21.40
2015,06,27,04,48,21.40
2015,06,27,04,49,21.40
2015,06,27,04,50,21.40
2015,06,27,04,51,21.40
2015,06,27,04,52,21.40
2015,06,27,04,53,21.40
2015,06,27,04,54,21.50
2015,06,27,04,55,21.50
2015,06,27,04,56,21.50
2015,06,27,04,57,21.60
2015,06,27,04,58,21.60
2015,06,27,04,59,21.60
2015,06,27,05,00,21.60
2015,06,27,05,01,21.60
2015,06,27,05,02,21.60
2015,06,27,05,03,21.60
2015,06,27,05,04,21.60
2015,06,27,05,05,21.60
2015,06,27,05,06,21.50
2015,06,27,05,07,21.50
2015,06,27,05,08,21.50
2015,06,27,05,09,21.50
2015,06,27,05,10,21.50
2015,06,27,05,11,21.50
2015,06,27,05,12,21.50
2015,06,27,05,13,21.50
2015,06,27,05,14,21.50
2015,06,27,05,15,21.40
2015,06,27,05,16,21.40
2015,06,27,05,17,21.40
2015,06,27,05,18,21.40
2015,06,27,05,19,21.30
2015,06,27,05,20,21.30
2015,06,27,05,21,21.30
2015,06,27,05,22,21.30
2015,06,27,05,23,21.30
2015,06,27,05,24,21.30
2015,06,27,05,25,21.20
2015,06,27,05,26,21.20
2015,06,27,05,27,21.20
2015,06,27,05,28,21.20
2015,06,27,05,29,21.20
2015,06,27,05,30,21.10
2015,06,27,05,31,21.10
2015,06,27,05,32,21.10
2015,06,27,05,33,21.10
2015,06,27,05,34,21.10
2015,06,27,05,35,21.10
2015,06,27,05,36,21.10
2015,06,27,05,37,21.10
2015,06,27,05,38,21.10
2015,06,27,05,39,21.10
2015,06,27,05,40,21.10
2015,06,27,05,41,21.10
2015,06,27,05,42,21.20
2015,06,27,05,43,21.20
2015,06,27,05,44,21.20
2015,06,27,05,45,21.20
2015,06,27,05,46,21.20
2015,06,27,05,47,21.20
2015,06,27,05,48,21.20
2015,06,27,05,49,21.20
2015,06,27,05,50,21.20
2015,06,27,05,51,21.20
2015,06,27,05,52,21.20
2015,06,27,05,53,21.20
2015,06,27,05,54,21.20
2015,06,27,05,55,21.20
2015,06,27,05,56,21.20
2015,06,27,05,57,21.30
2015,06,27,05,58,21.30
2015,06,27,05,59,21.30
2015,06,27,06,00,21.30
2015,06,27,06,01,21.30
2015,06,27,06,02,21.30
2015,06,27,06,03,21.30
2015,06,27,06,04,21.30
2015,06,27,06,05,21.30
2015,06,27,06,06,21.30
2015,06,27,06,07,21.30
2015,06,27,06,08,21.30
2015,06,27,06,09,21.30
2015,06,27,06,10,21.30
2015,06,27,06,11,21.30
2015,06,27,06,12,21.30
2015,06,27,06,13,21.30
2015,06,27,06,14,21.30
2015,06,27,06,15,21.40
2015,06,27,06,16,21.40
2015,06,27,06,17,21.40
2015,06,27,06,18,21.40
2015,06,27,06,19,21.40
2015,06,27,06,20,21.40
2015,06,27,06,21,21.40
2015,06,27,06,22,21.30
2015,06,27,06,23,21.30
2015,06,27,06,24,21.30
2015,06,27,06,25,21.30
2015,06,27,06,26,21.30
2015,06,27,06,27,21.30
2015,06,27,06,28,21.30
2015,06,27,06,29,21.30
2015,06,27,06,30,21.30
2015,06,27,06,31,21.30
2015,06,27,06,32,21.30
2015,06,27,06,33,21.30
2015,06,27,06,34,21.30
2015,06,27,06,35,21.30
2015,06,27,06,36,21.30
2015,06,27,06,37,21.40
2015,06,27,06,38,21.40
2015,06,27,06,39,21.40
2015,06,27,06,40,21.40
2015,06,27,06,41,21.50
2015,06,27,06,42,21.50
2015,06,27,06,43,21.60
2015,06,27,06,44,21.60
2015,06,27,06,45,21.70
2015,06,27,06,46,21.70
2015,06,27,06,47,21.70
2015,06,27,06,48,21.80
2015,06,27,06,49,21.80
2015,06,27,06,50,21.80
2015,06,27,06,51,21.80
2015,06,27,06,52,21.80
2015,06,27,06,53,21.80
2015,06,27,06,54,21.90
2015,06,27,06,55,21.90
2015,06,27,06,56,21.90
2015,06,27,06,57,21.90
2015,06,27,06,58,21.90
2015,06,27,06,59,21.90
2015,06,27,07,00,21.90
2015,06,27,07,01,21.90
2015,06,27,07,02,21.90
2015,06,27,07,03,21.90
2015,06,27,07,04,21.90
2015,06,27,07,05,21.90
2015,06,27,07,06,21.90
2015,06,27,07,07,21.90
2015,06,27,07,08,21.90
2015,06,27,07,09,21.90
2015,06,27,07,10,22.00
2015,06,27,07,11,22.00
2015,06,27,07,12,22.00
2015,06,27,07,13,22.10
2015,06,27,07,14,22.10
2015,06,27,07,15,22.10
2015,06,27,07,16,22.20
2015,06,27,07,17,22.20
2015,06,27,07,18,22.20
2015,06,27,07,19,22.30
2015,06,27,07,20,22.30
2015,06,27,07,21,22.30
2015,06,27,07,22,22.40
2015,06,27,07,23,22.40
2015,06,27,07,24,22.40
2015,06,27,07,25,22.40
2015,06,27,07,26,22.50
2015,06,27,07,27,22.60
2015,06,27,07,28,22.60
2015,06,27,07,29,22.60
2015,06,27,07,30,22.70
2015,06,27,07,31,22.70
2015,06,27,07,32,22.70
2015,06,27,07,33,22.70
2015,06,27,07,34,22.80
2015,06,27,07,35,22.80
2015,06,27,07,36,22.80
2015,06,27,07,37,22.80
2015,06,27,07,38,22.80
2015,06,27,07,39,22.80
2015,06,27,07,40,22.80
2015,06,27,07,41,22.70
2015,06,27,07,42,22.70
2015,06,27,07,43,22.70
2015,06,27,07,44,22.70
2015,06,27,07,45,22.70
2015,06,27,07,46,22.70
2015,06,27,07,47,22.70
2015,06,27,07,48,22.70
2015,06,27,07,49,22.70
2015,06,27,07,50,22.70
2015,06,27,07,51,22.70
2015,06,27,07,52,22.80
2015,06,27,07,53,22.80
2015,06,27,07,54,22.90
2015,06,27,07,55,22.90
2015,06,27,07,56,22.90
2015,06,27,07,57,23.00
2015,06,27,07,58,23.00
2015,06,27,07,59,23.00
2015,06,27,08,00,23.10
2015,06,27,08,01,23.10
2015,06,27,08,02,23.10
2015,06,27,08,03,23.10
2015,06,27,08,04,23.10
2015,06,27,08,05,23.10
2015,06,27,08,06,23.10
2015,06,27,08,07,23.10
2015,06,27,08,08,23.10
2015,06,27,08,09,23.10
2015,06,27,08,10,23.00
2015,06,27,08,11,23.00
2015,06,27,08,12,23.00
2015,06,27,08,13,22.90
2015,06,27,08,14,22.90
2015,06,27,08,15,22.90
2015,06,27,08,16,22.90
2015,06,27,08,17,22.90
2015,06,27,08,18,22.90
2015,06,27,08,19,22.80
2015,06,27,08,20,22.90
2015,06,27,08,21,22.90
2015,06,27,08,22,22.90
2015,06,27,08,23,22.90
2015,06,27,08,24,22.90
2015,06,27,08,25,23.00
2015,06,27,08,26,23.10
2015,06,27,08,27,23.10
2015,06,27,08,28,23.10
2015,06,27,08,29,23.10
2015,06,27,08,30,23.20
2015,06,27,08,31,23.20
2015,06,27,08,32,23.20
2015,06,27,08,33,23.20
2015,06,27,08,34,23.20
2015,06,27,08,35,23.30
2015,06,27,08,36,23.30
2015,06,27,08,37,23.30
2015,06,27,08,38,23.40
2015,06,27,08,39,23.40
2015,06,27,08,40,23.50
2015,06,27,08,41,23.50
2015,06,27,08,42,23.50
2015,06,27,08,43,23.60
2015,06,27,08,44,23.70
2015,06,27,08,45,23.70
2015,06,27,08,46,23.80
2015,06,27,08,47,23.80
2015,06,27,08,48,23.80
2015,06,27,08,49,23.90
2015,06,27,08,50,23.90
2015,06,27,08,51,24.00
2015,06,27,08,52,24.00
2015,06,27,08,53,24.10
2015,06,27,08,54,24.10
2015,06,27,08,55,24.10
2015,06,27,08,56,24.20
2015,06,27,08,57,24.20
2015,06,27,08,58,24.20
2015,06,27,08,59,24.20
2015,06,27,09,00,24.30
2015,06,27,09,01,24.30
2015,06,27,09,02,24.30
2015,06,27,09,03,24.30
2015,06,27,09,04,24.30
2015,06,27,09,05,24.30
2015,06,27,09,06,24.30
2015,06,27,09,07,24.40
2015,06,27,09,08,24.40
2015,06,27,09,09,24.40
2015,06,27,09,10,24.30
2015,06,27,09,11,24.30
2015,06,27,09,12,24.20
2015,06,27,09,13,24.20
2015,06,27,09,14,24.10
2015,06,27,09,15,24.10
2015,06,27,09,16,24.10
2015,06,27,09,17,24.10
2015,06,27,09,18,24.00
2015,06,27,09,19,24.00
2015,06,27,09,20,23.90
2015,06,27,09,21,23.90
2015,06,27,09,22,24.00
2015,06,27,09,23,24.00
2015,06,27,09,24,24.10
2015,06,27,09,25,24.20
2015,06,27,09,26,24.20
2015,06,27,09,27,24.20
2015,06,27,09,28,24.20
2015,06,27,09,29,24.20
2015,06,27,09,30,24.10
2015,06,27,09,31,24.10
2015,06,27,09,32,24.10
2015,06,27,09,33,24.00
2015,06,27,09,34,24.00
2015,06,27,09,35,24.00
2015,06,27,09,36,24.00
2015,06,27,09,37,24.00
2015,06,27,09,38,24.00
2015,06,27,09,39,24.10
2015,06,27,09,40,24.10
2015,06,27,09,41,24.00
2015,06,27,09,42,23.90
2015,06,27,09,43,23.90
2015,06,27,09,44,23.90
2015,06,27,09,45,24.00
2015,06,27,09,46,24.00
2015,06,27,09,47,24.10
2015,06,27,09,48,24.20
2015,06,27,09,49,24.20
2015,06,27,09,50,24.30
2015,06,27,09,51,24.40
2015,06,27,09,52,24.50
2015,06,27,09,53,24.60
2015,06,27,09,54,24.70
2015,06,27,09,55,24.70
2015,06,27,09,56,24.70
2015,06,27,09,57,24.80
2015,06,27,09,58,24.80
2015,06,27,09,59,24.80
2015,06,27,10,00,24.80
2015,06,27,10,01,24.80
2015,06,27,10,02,24.80
2015,06,27,10,03,24.80
2015,06,27,10,04,24.80
2015,06,27,10,05,24.80
2015,06,27,10,06,24.90
2015,06,27,10,07,24.90
2015,06,27,10,08,24.90
2015,06,27,10,09,24.90
2015,06,27,10,10,24.80
2015,06,27,10,11,24.80
2015,06,27,10,12,24.80
2015,06,27,10,13,24.80
2015,06,27,10,14,24.90
2015,06,27,10,15,24.90
2015,06,27,10,16,24.90
2015,06,27,10,17,24.90
2015,06,27,10,18,24.90
2015,06,27,10,19,24.90
2015,06,27,10,20,24.80
2015,06,27,10,21,24.80
2015,06,27,10,22,24.80
2015,06,27,10,23,24.80
2015,06,27,10,24,24.80
2015,06,27,10,25,24.80
2015,06,27,10,26,24.80
2015,06,27,10,27,24.90
2015,06,27,10,28,25.00
2015,06,27,10,29,25.10
2015,06,27,10,30,25.10
2015,06,27,10,31,25.10
2015,06,27,10,32,25.10
2015,06,27,10,33,25.00
2015,06,27,10,34,25.00
2015,06,27,10,35,24.90
2015,06,27,10,36,24.90
2015,06,27,10,37,24.90
2015,06,27,10,38,24.90
2015,06,27,10,39,24.90
2015,06,27,10,40,24.90
2015,06,27,10,41,24.90
2015,06,27,10,42,24.90
2015,06,27,10,43,24.80
2015,06,27,10,44,24.80
2015,06,27,10,45,24.80
2015,06,27,10,46,24.80
2015,06,27,10,47,24.80
2015,06,27,10,48,24.70
2015,06,27,10,49,24.70
2015,06,27,10,50,24.80
2015,06,27,10,51,24.80
2015,06,27,10,52,24.80
2015,06,27,10,53,24.80
2015,06,27,10,54,24.80
2015,06,27,10,55,24.80
2015,06,27,10,56,24.80
2015,06,27,10,57,24.80
2015,06,27,10,58,24.90
2015,06,27,10,59,24.90
2015,06,27,11,00,24.90
2015,06,27,11,01,25.00
2015,06,27,11,02,25.00
2015,06,27,11,03,25.00
2015,06,27,11,04,25.10
2015,06,27,11,05,25.20
2015,06,27,11,06,25.30
2015,06,27,11,07,25.40
2015,06,27,11,08,25.50
2015,06,27,11,09,25.60
2015,06,27,11,10,25.70
2015,06,27,11,11,25.80
2015,06,27,11,12,25.80
2015,06,27,11,13,25.80
2015,06,27,11,14,25.90
2015,06,27,11,15,25.90
2015,06,27,11,16,25.80
2015,06,27,11,17,25.80
2015,06,27,11,18,25.80
2015,06,27,11,19,25.80
2015,06,27,11,20,25.90
2015,06,27,11,21,26.00
2015,06,27,11,22,26.00
2015,06,27,11,23,26.00
2015,06,27,11,24,26.10
2015,06,27,11,25,26.20
2015,06,27,11,26,26.20
2015,06,27,11,27,26.30
2015,06,27,11,28,26.40
2015,06,27,11,29,26.40
2015,06,27,11,30,26.50
2015,06,27,11,31,26.50
2015,06,27,11,32,26.60
2015,06,27,11,33,26.60
2015,06,27,11,34,26.70
2015,06,27,11,35,26.80
2015,06,27,11,36,26.80
2015,06,27,11,37,26.90
2015,06,27,11,38,26.90
2015,06,27,11,39,26.90
2015,06,27,11,40,26.90
2015,06,27,11,41,26.90
2015,06,27,11,42,26.90
2015,06,27,11,43,27.00
2015,06,27,11,44,27.00
2015,06,27,11,45,27.00
2015,06,27,11,46,27.00
2015,06,27,11,47,27.10
2015,06,27,11,48,27.20
2015,06,27,11,49,27.30
2015,06,27,11,50,27.40
2015,06,27,11,51,27.60
2015,06,27,11,52,27.70
2015,06,27,11,53,27.70
2015,06,27,11,54,27.80
2015,06,27,11,55,27.80
2015,06,27,11,56,27.80
2015,06,27,11,57,27.80
2015,06,27,11,58,27.80
2015,06,27,11,59,27.60
2015,06,27,12,00,27.60
2015,06,27,12,01,27.50
2015,06,27,12,02,27.50
2015,06,27,12,03,27.50
2015,06,27,12,04,27.60
2015,06,27,12,05,27.60
2015,06,27,12,06,27.60
2015,06,27,12,07,27.60
2015,06,27,12,08,27.60
2015,06,27,12,09,27.70
2015,06,27,12,10,27.80
2015,06,27,12,11,27.80
2015,06,27,12,12,27.80
2015,06,27,12,13,27.80
2015,06,27,12,14,27.70
2015,06,27,12,15,27.70
2015,06,27,12,16,27.70
2015,06,27,12,17,27.70
2015,06,27,12,18,27.70
2015,06,27,12,19,27.70
2015,06,27,12,20,27.70
2015,06,27,12,21,27.80
2015,06,27,12,22,27.80
2015,06,27,12,23,27.80
2015,06,27,12,24,27.80
2015,06,27,12,25,27.80
2015,06,27,12,26,27.80
2015,06,27,12,27,27.80
2015,06,27,12,28,27.80
2015,06,27,12,29,27.90
2015,06,27,12,30,27.90
2015,06,27,12,31,28.00
2015,06,27,12,32,28.10
2015,06,27,12,33,28.20
2015,06,27,12,34,28.30
2015,06,27,12,35,28.50
2015,06,27,12,36,28.60
2015,06,27,12,37,28.70
2015,06,27,12,38,28.80
2015,06,27,12,39,28.90
2015,06,27,12,40,28.90
2015,06,27,12,41,29.00
2015,06,27,12,42,29.00
2015,06,27,12,43,29.00
2015,06,27,12,44,29.00
2015,06,27,12,45,29.10
2015,06,27,12,46,29.20
2015,06,27,12,47,29.30
2015,06,27,12,48,29.30
2015,06,27,12,49,29.20
2015,06,27,12,50,29.20
2015,06,27,12,51,29.20
2015,06,27,12,52,29.20
2015,06,27,12,53,29.20
2015,06,27,12,54,29.10
2015,06,27,12,55,29.10
2015,06,27,12,56,29.00
2015,06,27,12,57,28.90
2015,06,27,12,58,28.80
2015,06,27,12,59,28.80
2015,06,27,13,00,28.80
2015,06,27,13,01,28.70
2015,06,27,13,02,28.70
2015,06,27,13,03,28.70
2015,06,27,13,04,28.70
2015,06,27,13,05,28.70
2015,06,27,13,06,28.70
2015,06,27,13,07,28.80
2015,06,27,13,08,28.80
2015,06,27,13,09,28.80
2015,06,27,13,10,28.90
2015,06,27,13,11,29.00
2015,06,27,13,12,29.10
2015,06,27,13,13,29.20
2015,06,27,13,14,29.20
2015,06,27,13,15,29.20
2015,06,27,13,16,29.30
2015,06,27,13,17,29.40
2015,06,27,13,18,29.50
2015,06,27,13,19,29.60
2015,06,27,13,20,29.60
2015,06,27,13,21,29.60
2015,06,27,13,22,29.70
2015,06,27,13,23,29.80
2015,06,27,13,24,29.80
2015,06,27,13,25,29.90
2015,06,27,13,26,29.90
2015,06,27,13,27,29.90
2015,06,27,13,28,29.80
2015,06,27,13,29,29.70
2015,06,27,13,30,29.70
2015,06,27,13,31,29.70
2015,06,27,13,32,29.70
2015,06,27,13,33,29.60
2015,06,27,13,34,29.60
2015,06,27,13,35,29.50
2015,06,27,13,36,29.60
2015,06,27,13,37,29.60
2015,06,27,13,38,29.70
2015,06,27,13,39,29.80
2015,06,27,13,40,29.90
2015,06,27,13,41,30.00
2015,06,27,13,42,30.00
2015,06,27,13,43,30.10
2015,06,27,13,44,30.10
2015,06,27,13,45,30.10
2015,06,27,13,46,30.10
2015,06,27,13,47,30.10
2015,06,27,13,48,30.10
2015,06,27,13,49,30.10
2015,06,27,13,50,30.10
2015,06,27,13,51,30.10
2015,06,27,13,52,30.00
2015,06,27,13,53,29.90
2015,06,27,13,54,29.90
2015,06,27,13,55,29.80
2015,06,27,13,56,29.80
2015,06,27,13,57,29.70
2015,06,27,13,58,29.70
2015,06,27,13,59,29.60
2015,06,27,14,00,29.70
2015,06,27,14,01,29.80
2015,06,27,14,02,29.80
2015,06,27,14,03,29.90
2015,06,27,14,04,29.90
2015,06,27,14,05,29.80
2015,06,27,14,06,29.80
2015,06,27,14,07,29.70
2015,06,27,14,08,29.60
2015,06,27,14,09,29.50
2015,06,27,14,10,29.40
2015,06,27,14,11,29.40
2015,06,27,14,12,29.40
2015,06,27,14,13,29.30
2015,06,27,14,14,29.20
2015,06,27,14,15,29.20
2015,06,27,14,16,29.10
2015,06,27,14,17,29.00
2015,06,27,14,18,29.10
2015,06,27,14,19,29.00
2015,06,27,14,20,29.00
2015,06,27,14,21,29.00
2015,06,27,14,22,29.00
2015,06,27,14,23,29.00
2015,06,27,14,24,29.00
2015,06,27,14,25,29.10
2015,06,27,14,26,29.10
2015,06,27,14,27,29.10
2015,06,27,14,28,29.20
2015,06,27,14,29,29.20
2015,06,27,14,30,29.30
2015,06,27,14,31,29.30
2015,06,27,14,32,29.30
2015,06,27,14,33,29.30
2015,06,27,14,34,29.30
2015,06,27,14,35,29.30
2015,06,27,14,36,29.30
2015,06,27,14,37,29.30
2015,06,27,14,38,29.40
2015,06,27,14,39,29.40
2015,06,27,14,40,29.40
2015,06,27,14,41,29.40
2015,06,27,14,42,29.40
2015,06,27,14,43,29.40
2015,06,27,14,44,29.40
2015,06,27,14,45,29.60
2015,06,27,14,46,29.70
2015,06,27,14,47,29.70
2015,06,27,14,48,29.70
2015,06,27,14,49,29.70
2015,06,27,14,50,29.80
2015,06,27,14,51,29.90
2015,06,27,14,52,29.90
2015,06,27,14,53,29.90
2015,06,27,14,54,29.90
2015,06,27,14,55,29.90
2015,06,27,14,56,29.90
2015,06,27,14,57,29.90
2015,06,27,14,58,29.90
2015,06,27,14,59,29.90
2015,06,27,15,00,29.90
2015,06,27,15,01,29.90
2015,06,27,15,02,29.80
2015,06,27,15,03,29.90
2015,06,27,15,04,29.90
2015,06,27,15,05,29.90
2015,06,27,15,06,29.90
2015,06,27,15,07,29.90
2015,06,27,15,08,29.90
2015,06,27,15,09,29.90
2015,06,27,15,10,30.00
2015,06,27,15,11,30.00
2015,06,27,15,12,30.10
2015,06,27,15,13,30.20
2015,06,27,15,14,30.20
2015,06,27,15,15,30.30
2015,06,27,15,16,30.30
2015,06,27,15,17,30.30
2015,06,27,15,18,30.30
2015,06,27,15,19,30.30
2015,06,27,15,20,30.30
2015,06,27,15,21,30.30
2015,06,27,15,22,30.40
2015,06,27,15,23,30.50
2015,06,27,15,24,30.60
2015,06,27,15,25,30.60
2015,06,27,15,26,30.70
2015,06,27,15,27,30.70
2015,06,27,15,28,30.80
2015,06,27,15,29,30.90
2015,06,27,15,30,30.90
2015,06,27,15,31,31.00
2015,06,27,15,32,31.00
2015,06,27,15,33,31.00
2015,06,27,15,34,31.00
2015,06,27,15,35,31.00
2015,06,27,15,36,31.00
2015,06,27,15,37,31.00
2015,06,27,15,38,31.00
2015,06,27,15,39,31.10
2015,06,27,15,40,31.10
2015,06,27,15,41,31.20
2015,06,27,15,42,31.20
2015,06,27,15,43,31.10
2015,06,27,15,44,31.10
2015,06,27,15,45,31.10
2015,06,27,15,46,31.10
2015,06,27,15,47,31.10
2015,06,27,15,48,31.00
2015,06,27,15,49,30.90
2015,06,27,15,50,30.90
2015,06,27,15,51,30.80
2015,06,27,15,52,30.80
2015,06,27,15,53,30.70
2015,06,27,15,54,30.60
2015,06,27,15,55,30.60
2015,06,27,15,56,30.60
2015,06,27,15,57,30.60
2015,06,27,15,58,30.60
2015,06,27,15,59,30.70
2015,06,27,16,00,30.70
2015,06,27,16,01,30.80
2015,06,27,16,02,30.80
2015,06,27,16,03,30.80
2015,06,27,16,04,30.80
2015,06,27,16,05,30.80
2015,06,27,16,06,30.80
2015,06,27,16,07,30.80
2015,06,27,16,08,30.80
2015,06,27,16,09,30.80
2015,06,27,16,10,30.70
2015,06,27,16,11,30.80
2015,06,27,16,12,30.80
2015,06,27,16,13,30.90
2015,06,27,16,14,30.90
2015,06,27,16,15,31.00
2015,06,27,16,16,31.10
2015,06,27,16,17,31.10
2015,06,27,16,18,31.20
2015,06,27,16,19,31.30
2015,06,27,16,20,31.30
2015,06,27,16,21,31.30
2015,06,27,16,22,31.30
2015,06,27,16,23,31.40
2015,06,27,16,24,31.40
2015,06,27,16,25,31.40
2015,06,27,16,26,31.50
2015,06,27,16,27,31.50
2015,06,27,16,28,31.50
2015,06,27,16,29,31.50
2015,06,27,16,30,31.50
2015,06,27,16,31,31.60
2015,06,27,16,32,31.60
2015,06,27,16,33,31.60
2015,06,27,16,34,31.70
2015,06,27,16,35,31.70
2015,06,27,16,36,31.70
2015,06,27,16,37,31.70
2015,06,27,16,38,31.70
2015,06,27,16,39,31.80
2015,06,27,16,40,31.80
2015,06,27,16,41,31.80
2015,06,27,16,42,31.80
2015,06,27,16,43,31.80
2015,06,27,16,44,31.90
2015,06,27,16,45,31.90
2015,06,27,16,46,31.90
2015,06,27,16,47,31.90
2015,06,27,16,48,32.00
2015,06,27,16,49,32.00
2015,06,27,16,50,32.00
2015,06,27,16,51,32.00
2015,06,27,16,52,32.00
2015,06,27,16,53,31.90
2015,06,27,16,54,31.90
2015,06,27,16,55,31.90
2015,06,27,16,56,32.00
2015,06,27,16,57,32.00
2015,06,27,16,58,32.10
2015,06,27,16,59,32.10
2015,06,27,17,00,32.20
2015,06,27,17,01,32.20
2015,06,27,17,02,32.30
2015,06,27,17,03,32.30
2015,06,27,17,04,32.40
2015,06,27,17,05,32.40
2015,06,27,17,06,32.50
2015,06,27,17,07,32.60
2015,06,27,17,08,32.60
2015,06,27,17,09,32.70
2015,06,27,17,10,32.70
2015,06,27,17,11,32.60
2015,06,27,17,12,32.60
2015,06,27,17,13,32.60
2015,06,27,17,14,32.50
2015,06,27,17,15,32.50
2015,06,27,17,16,32.60
2015,06,27,17,17,32.60
2015,06,27,17,18,32.60
2015,06,27,17,19,32.60